| time (UTC) | temp F | wind direction | speed MPH | gust MPH | rain 1hr in | rain 24hr in | rain mn in | humidity % | barometer mb |
| 20260831163039 | 60 | 172 | 3.0 | 8.0 | 0.00 | 0.00 | 0.00 | 80 | 1018.3 |
| 20260831161532 | 59 | 171 | 1.0 | 7.0 | 0.00 | 0.00 | 0.00 | 82 | 1018.2 |
| 20260831160029 | 59 | 171 | 0.0 | 8.0 | 0.00 | 0.00 | 0.00 | 82 | 1018.2 |
| 20260831154527 | 59 | 171 | 3.0 | 8.0 | 0.00 | 0.00 | 0.00 | 83 | 1018.2 |
| 20260831153026 | 58 | 171 | 0.0 | 5.0 | 0.00 | 0.00 | 0.00 | 83 | 1018.1 |
| 20260831151523 | 58 | 171 | 1.0 | 6.0 | 0.00 | 0.00 | 0.00 | 83 | 1017.9 |
| 20260831150021 | 58 | 171 | 2.0 | 8.0 | 0.00 | 0.00 | 0.00 | 83 | 1017.7 |
| 20260831144521 | 58 | 172 | 1.0 | 8.0 | 0.00 | 0.00 | 0.00 | 83 | 1017.6 |
| 20260831143032 | 58 | 171 | 0.0 | 7.0 | 0.00 | 0.00 | 0.00 | 83 | 1017.5 |
| 20260831141540 | 57 | 173 | 0.0 | 9.0 | 0.00 | 0.00 | 0.00 | 84 | 1017.3 |
| 20260831140029 | 57 | 173 | 1.0 | 6.0 | 0.00 | 0.00 | 0.00 | 84 | 1017.0 |
| 20260831134508 | 57 | 174 | 1.0 | 6.0 | 0.00 | 0.00 | 0.00 | 84 | 1016.9 |
| 20260831133009 | 57 | 174 | 0.0 | 11.0 | 0.00 | 0.00 | 0.00 | 83 | 1016.8 |
| 20260831131506 | 58 | 173 | 0.0 | 7.0 | 0.00 | 0.00 | 0.00 | 83 | 1016.7 |
| 20260831130003 | 58 | 173 | 1.0 | 7.0 | 0.00 | 0.00 | 0.00 | 83 | 1016.6 |
| 20260831124501 | 58 | 171 | 1.0 | 5.0 | 0.00 | 0.00 | 0.00 | 83 | 1016.5 |
| 20260831123101 | 58 | 171 | 2.0 | 8.0 | 0.00 | 0.00 | 0.00 | 82 | 1016.5 |
| 20260831121559 | 58 | 171 | 3.0 | 7.0 | 0.00 | 0.00 | 0.00 | 82 | 1016.4 |
| 20260831120058 | 58 | 171 | 1.0 | 5.0 | 0.00 | 0.00 | 0.00 | 81 | 1016.5 |
| 20260831114555 | 59 | 171 | 1.0 | 5.0 | 0.00 | 0.00 | 0.00 | 81 | 1016.3 |
| 20260831113054 | 59 | 171 | 0.0 | 4.0 | 0.00 | 0.00 | 0.00 | 80 | 1016.3 |
| 20260831111551 | 59 | 171 | 0.0 | 4.0 | 0.00 | 0.00 | 0.00 | 79 | 1016.2 |
| 20260831110053 | 60 | 171 | 0.0 | 4.0 | 0.00 | 0.00 | 0.00 | 78 | 1016.3 |
| 20260831104549 | 60 | 171 | 0.0 | 5.0 | 0.00 | 0.00 | 0.00 | 77 | 1016.3 |
| 20260831103048 | 60 | 171 | 1.0 | 6.0 | 0.00 | 0.00 | 0.00 | 77 | 1016.2 |
| 20260831101600 | 60 | 171 | 0.0 | 4.0 | 0.00 | 0.00 | 0.00 | 76 | 1016.2 |
| 20260831100057 | 61 | 171 | 0.0 | 1.0 | 0.00 | 0.00 | 0.00 | 75 | 1016.1 |
| 20260831094544 | 61 | 171 | 0.0 | 4.0 | 0.00 | 0.00 | 0.00 | 75 | 1016.0 |
| 20260831093042 | 61 | 171 | 0.0 | 4.0 | 0.00 | 0.00 | 0.00 | 74 | 1016.0 |
| 20260831091540 | 62 | 171 | 0.0 | 5.0 | 0.00 | 0.00 | 0.00 | 73 | 1016.1 |
| 20260831090055 | 62 | 171 | 0.0 | 6.0 | 0.00 | 0.00 | 0.00 | 72 | 1016.0 |
| 20260831084537 | 62 | 172 | 1.0 | 7.0 | 0.00 | 0.00 | 0.00 | 71 | 1016.1 |
| 20260831083034 | 63 | 172 | 0.0 | 5.0 | 0.00 | 0.00 | 0.00 | 70 | 1016.1 |
| 20260831081533 | 63 | 172 | 0.0 | 6.0 | 0.00 | 0.00 | 0.00 | 69 | 1016.1 |
| 20260831080031 | 63 | 172 | 0.0 | 4.0 | 0.00 | 0.00 | 0.00 | 68 | 1016.2 |
| 20260831074530 | 63 | 172 | 1.0 | 4.0 | 0.00 | 0.00 | 0.00 | 68 | 1016.1 |
| 20260831073029 | 64 | 172 | 0.0 | 4.0 | 0.00 | 0.00 | 0.00 | 68 | 1016.0 |
| 20260831071526 | 64 | 173 | 0.0 | 4.0 | 0.00 | 0.00 | 0.00 | 67 | 1016.0 |
| 20260831070030 | 65 | 173 | 0.0 | 4.0 | 0.00 | 0.00 | 0.00 | 67 | 1016.0 |
| 20260831064522 | 65 | 173 | 0.0 | 3.0 | 0.00 | 0.00 | 0.00 | 66 | 1016.1 |
| 20260831063022 | 66 | 172 | 0.0 | 5.0 | 0.00 | 0.00 | 0.00 | 65 | 1016.0 |
| 20260831061521 | 66 | 172 | 0.0 | 2.0 | 0.00 | 0.00 | 0.00 | 65 | 1015.9 |
| 20260831060021 | 67 | 172 | 0.0 | 4.0 | 0.00 | 0.00 | 0.00 | 64 | 1015.8 |
| 20260831054525 | 67 | 172 | 0.0 | 4.0 | 0.00 | 0.00 | 0.00 | 63 | 1015.9 |
| 20260831053020 | 68 | 172 | 0.0 | 3.0 | 0.00 | 0.00 | 0.00 | 62 | 1016.0 |
| 20260831051526 | 69 | 172 | 0.0 | 4.0 | 0.00 | 0.00 | 0.00 | 61 | 1015.9 |
| 20260831050019 | 69 | 173 | 1.0 | 6.0 | 0.00 | 0.00 | 0.00 | 59 | 1015.9 |
| 20260831044520 | 70 | 172 | 0.0 | 7.0 | 0.00 | 0.00 | 0.00 | 58 | 1015.9 |
| 20260831043018 | 71 | 172 | 0.0 | 4.0 | 0.00 | 0.00 | 0.00 | 57 | 1015.8 |
| 20260831041524 | 72 | 172 | 0.0 | 5.0 | 0.00 | 0.00 | 0.00 | 55 | 1015.8 |
| 20260831040017 | 73 | 172 | 1.0 | 4.0 | 0.00 | 0.00 | 0.00 | 53 | 1015.6 |
| 20260831034516 | 74 | 172 | 0.0 | 3.0 | 0.00 | 0.00 | 0.00 | 51 | 1015.5 |
| 20260831033021 | 76 | 172 | 3.0 | 7.0 | 0.00 | 0.00 | 0.00 | 48 | 1015.4 |
| 20260831031517 | 78 | 172 | 0.0 | 4.0 | 0.00 | 0.00 | 0.00 | 44 | 1015.3 |
| 20260831030019 | 79 | 172 | 0.0 | 6.0 | 0.00 | 0.00 | 0.00 | 42 | 1015.1 |
| 20260831024519 | 80 | 172 | 1.0 | 6.0 | 0.00 | 0.00 | 0.00 | 41 | 1015.0 |
| 20260831023015 | 81 | 172 | 2.0 | 8.0 | 0.00 | 0.00 | 0.00 | 39 | 1015.1 |
| 20260831021514 | 82 | 171 | 1.0 | 4.0 | 0.00 | 0.00 | 0.00 | 37 | 1015.0 |
| 20260831020014 | 83 | 171 | 1.0 | 6.0 | 0.00 | 0.00 | 0.00 | 36 | 1015.0 |
| 20260831014520 | 84 | 171 | 2.0 | 6.0 | 0.00 | 0.00 | 0.00 | 33 | 1014.9 |
| 20260831013012 | 85 | 171 | 1.0 | 6.0 | 0.00 | 0.00 | 0.00 | 31 | 1014.9 |
| 20260831011514 | 86 | 171 | 1.0 | 3.0 | 0.00 | 0.00 | 0.00 | 33 | 1014.9 |
| 20260831010011 | 87 | 171 | 1.0 | 7.0 | 0.00 | 0.00 | 0.00 | 34 | 1015.0 |
| 20260831004510 | 88 | 171 | 1.0 | 5.0 | 0.00 | 0.00 | 0.00 | 34 | 1015.1 |
| 20260831003010 | 89 | 171 | 1.0 | 5.0 | 0.00 | 0.00 | 0.00 | 32 | 1015.0 |
| 20260831001508 | 90 | 171 | 0.0 | 4.0 | 0.00 | 0.00 | 0.00 | 30 | 1015.2 |
| 20260831000004 | 91 | 171 | 0.0 | 3.0 | 0.00 | 0.00 | 0.00 | 29 | 1015.3 |
| 20260830234608 | 90 | 171 | 1.0 | 5.0 | 0.00 | 0.00 | 0.00 | 30 | 1015.4 |
| 20260830233056 | 90 | 171 | 0.0 | 4.0 | 0.00 | 0.00 | 0.00 | 30 | 1015.5 |
| 20260830231552 | 90 | 171 | 0.0 | 4.0 | 0.00 | 0.00 | 0.00 | 31 | 1015.7 |
| 20260830230051 | 89 | 171 | 0.0 | 5.0 | 0.00 | 0.00 | 0.00 | 31 | 1015.8 |
| 20260830224552 | 89 | 171 | 1.0 | 6.0 | 0.00 | 0.00 | 0.00 | 32 | 1016.0 |
| 20260830223045 | 89 | 171 | 1.0 | 4.0 | 0.00 | 0.00 | 0.00 | 34 | 1016.2 |
| 20260830221545 | 87 | 171 | 2.0 | 4.0 | 0.00 | 0.00 | 0.00 | 35 | 1016.4 |
| 20260830220038 | 86 | 171 | 1.0 | 5.0 | 0.00 | 0.00 | 0.00 | 37 | 1016.7 |
| 20260830214538 | 86 | 171 | 0.0 | 4.0 | 0.00 | 0.00 | 0.00 | 38 | 1016.9 |
| 20260830213035 | 86 | 171 | 1.0 | 4.0 | 0.00 | 0.00 | 0.00 | 37 | 1017.1 |
| 20260830211532 | 86 | 171 | 0.0 | 4.0 | 0.00 | 0.00 | 0.00 | 38 | 1017.4 |
| 20260830210026 | 84 | 171 | 1.0 | 4.0 | 0.00 | 0.00 | 0.00 | 38 | 1017.4 |
| 20260830204522 | 83 | 171 | 0.0 | 3.0 | 0.00 | 0.00 | 0.00 | 40 | 1017.7 |
| 20260830203030 | 82 | 171 | 2.0 | 6.0 | 0.00 | 0.00 | 0.00 | 42 | 1017.9 |
| 20260830201528 | 81 | 171 | 0.0 | 4.0 | 0.00 | 0.00 | 0.00 | 45 | 1017.9 |
| 20260830200013 | 80 | 171 | 2.0 | 5.0 | 0.00 | 0.00 | 0.00 | 46 | 1018.1 |
| 20260830194511 | 80 | 171 | 1.0 | 3.0 | 0.00 | 0.00 | 0.00 | 46 | 1018.2 |
| 20260830193009 | 79 | 171 | 0.0 | 5.0 | 0.00 | 0.00 | 0.00 | 49 | 1018.5 |
| 20260830191504 | 77 | 171 | 0.0 | 3.0 | 0.00 | 0.00 | 0.00 | 50 | 1018.6 |
| 20260830184556 | 75 | 171 | 0.0 | 4.0 | 0.00 | 0.00 | 0.00 | 54 | 1018.9 |
| 20260830183105 | 74 | 171 | 0.0 | 2.0 | 0.00 | 0.00 | 0.00 | 56 | 1018.9 |
| 20260830181556 | 73 | 171 | 1.0 | 4.0 | 0.00 | 0.00 | 0.00 | 57 | 1019.1 |
| 20260830180045 | 72 | 171 | 0.0 | 4.0 | 0.00 | 0.00 | 0.00 | 58 | 1019.1 |
| 20260830174542 | 71 | 171 | 0.0 | 3.0 | 0.00 | 0.00 | 0.00 | 59 | 1019.3 |
| 20260830173050 | 70 | 171 | 0.0 | 1.0 | 0.00 | 0.00 | 0.00 | 62 | 1019.4 |
| 20260830171541 | 68 | 171 | 0.0 | 3.0 | 0.00 | 0.00 | 0.00 | 64 | 1019.3 |
| 20260830170030 | 67 | 171 | 0.0 | 1.0 | 0.00 | 0.00 | 0.00 | 65 | 1019.3 |
| 20260830164533 | 66 | 171 | 0.0 | 3.0 | 0.00 | 0.00 | 0.00 | 67 | 1019.2 |